Flag for U.S.A. Weather past 2 weeks in Santa Rosa, California, U.S.A.

Now
84 °F

Scattered clouds.


Feels Like: 83 °F
Forecast: 51 / 78 °F
Wind: 9 mph from South

Location: Santa Rosa Sonoma County Airport

Current Time: Sep 16, 2014 at 4:49:27 PM

Latest Report: Sep 16, 2014 at 3:53 PM


Visibility: 10 mi

Pressure: 29.78 "Hg

Humidity: 36%

Dew point: 54 °F

Location of Santa RosaLocation

Historic Weather in Santa Rosa — Graph

°F

Santa Rosa temperature yesterday

Maximum temperature yesterday: 81 °F (at 2:53 PM)
Minimum temperature yesterday: 51 °F (at 3:53 AM)
Average temperature yesterday: 63 °F

Past Weeks' High & Low Weather Summary

 TemperatureHumidityPressure
High95 °F (Sep 1, 3:53 PM)100% (Sep 2, 6:03 AM)29.97 "Hg (Sep 2, 6:03 AM)
Low49 °F (Sep 10, 4:53 AM)17% (Sep 11, 2:53 PM)29.67 "Hg (Sep 3, 6:53 PM)
Average63 °F73%29.82 "Hg
* Reported Sep 1 2:53 PM — Sep 16 2:53 PM, Santa Rosa, Weather by CustomWeather, © 2014

Note: Actual official high and low records may vary slightly from our data, if they occured in-between our weather recording intervals... More about our weather records

Advertising

Santa Rosa weather history for previous 24 hours

 ConditionsComfort  
Time TempWeatherWind HumidityBarometerVisibility
2:53 PM
Sep 16
83 °FScattered clouds.7 mph38%29.80 "Hg10 mi
1:53 PM85 °FScattered clouds.7 mph27%29.82 "Hg10 mi
12:53 PM80 °FScattered clouds.3 mph34%29.84 "Hg10 mi
11:53 AM75 °FScattered clouds.5 mph43%29.85 "Hg10 mi
10:53 AM72 °FPassing clouds.No wind49%29.88 "Hg10 mi
9:53 AM66 °FSunny.No wind59%29.90 "Hg10 mi
8:53 AM60 °FSunny.No wind72%29.90 "Hg10 mi
7:53 AM53 °FSunny.No wind89%29.90 "Hg10 mi
6:53 AM50 °FPassing clouds.No wind89%29.90 "Hg10 mi
5:53 AM51 °FClear.No wind92%29.89 "Hg10 mi
4:53 AM51 °FClear.No wind89%29.89 "Hg10 mi
3:53 AM52 °FClear.3 mph89%29.89 "Hg10 mi
2:53 AM53 °FClear.No wind93%29.89 "Hg10 mi
1:53 AM54 °FClear.No wind90%29.90 "Hg10 mi
12:53 AM55 °FClear.No wind87%29.90 "Hg10 mi
11:53 PM
Sep 15
58 °FClear.3 mph81%29.90 "Hg10 mi
10:53 PM58 °FClear.5 mph81%29.89 "Hg10 mi
9:53 PM64 °FClear.5 mph63%29.89 "Hg10 mi
8:53 PM63 °FClear.5 mph65%29.87 "Hg10 mi
7:53 PM65 °FSunny.3 mph61%29.85 "Hg10 mi
6:53 PM70 °FSunny.6 mph51%29.84 "Hg10 mi
5:53 PM74 °FSunny.6 mph43%29.84 "Hg10 mi
4:53 PM77 °FSunny.9 mph39%29.84 "Hg10 mi
Weather by CustomWeather, © 2014

See weather overviewHow to use our weather pages